"TOA5","AWS1","CR1000","7964","CR1000.Std.14","CPU:AWS1_114.CR1","64363","TBL110"
"TIMESTAMP","RECORD","Wind_spd_WVc(1)","Wind_spd_WVc(2)","Air_Temp_Avg","Humidity_Avg","SW_upper_Wm2_Avg","Rain_Tot","Press_Avg","Issui_Tot","Depth_cm","SR50A_Raw","Quality","Ground_Temp_Avg(1)","Ground_Temp_Avg(2)","SW_lower_Wm2_Avg","Albedo_Avg","SWC_per(1)","SWC_per(2)","Period(1)","Period(2)"
"TS","RN","","","","","","","","","","","","","","","","","","",""
"","","WVc","WVc","Avg","Avg","Avg","Tot","Avg","Tot","Smp","Smp","Smp","Avg","Avg","Avg","Avg","Smp","Smp","Smp","Smp"
"2017-01-29 00:00:00",272797,0.315,188.2,-2.747,33.17,0,0,869.4533,0,83.6,2.356,173,1.464,2.281,0.8914554,0,51.88,59.56,33.76,35.58
"2017-01-29 00:10:00",272798,0.238,186.9,-2.981,34.36,0,0,869.3036,0,83.6,2.355,174,1.467,2.281,0.8990422,0,51.88,59.56,33.76,35.58
"2017-01-29 00:20:00",272799,0.339,181.8,-2.701,31.11,0,0,869.2615,0,83.9,2.351,173,1.487,2.271,1.031812,0,51.88,59.56,33.76,35.58
"2017-01-29 00:30:00",272800,0.181,175.4,-2.017,27.73,0,0,869.4533,0,83.3,2.358,178,1.483,2.268,1.498404,0,51.88,59.56,33.76,35.58
"2017-01-29 00:40:00",272801,0.39,188.3,-2.654,32.97,0,0,869.4533,0,83.9,2.351,174,1.491,2.271,0.9293897,0,51.88,59.56,33.76,35.58
"2017-01-29 00:50:00",272802,0.356,189.7,-2.253,30.71,0,0,869.5967,0,83.5,2.357,173,1.478,2.272,1.024225,0,51.88,59.56,33.76,35.58
"2017-01-29 01:00:00",272803,0.467,197.3,-2.597,32.85,0,0,869.622,0,83.4,2.358,179,1.503,2.275,1.126648,0,51.88,59.56,33.76,35.58
"2017-01-29 01:10:00",272804,0.596,189.7,-2.926,34.75,0,0,869.4512,0,83.6,2.356,174,1.507,2.275,0.8155868,0,51.88,59.56,33.76,35.58
"2017-01-29 01:20:00",272805,0.564,187.5,-2.684,32.75,0,0,869.2741,0,83.4,2.358,177,1.505,2.276,1.088714,0,51.82,59.56,33.75,35.58
"2017-01-29 01:30:00",272806,0.344,191.3,-2.409,28.09,0,0,869.1961,0,83.4,2.353,173,1.493,2.281,1.278385,0,51.82,59.56,33.75,35.58
"2017-01-29 01:40:00",272807,0.068,194.5,-1.842,24.07,0,0,869.0928,0,83.8,2.349,178,1.478,2.281,1.183549,0,51.88,59.56,33.76,35.58
"2017-01-29 01:50:00",272808,0.138,187.3,-1.618,26.9,0,0,868.9515,0,83.3,2.358,173,1.495,2.281,1.263211,0,51.82,59.56,33.75,35.58
"2017-01-29 02:00:00",272809,0.398,185.5,-2.499,32.19,0,0,868.6943,0,83.3,2.356,173,1.497,2.279,0.8649014,0,51.82,59.56,33.75,35.58
"2017-01-29 02:10:00",272810,0.508,183.1,-2.511,33.14,0,0,868.6879,0,83.3,2.358,173,1.497,2.278,0.5993614,0,51.88,59.56,33.76,35.58
"2017-01-29 02:20:00",272811,0.632,186.3,-2.698,32.85,0,0,868.319,0,83.4,2.358,174,1.488,2.278,0.6714365,0,51.88,59.56,33.76,35.58
"2017-01-29 02:30:00",272812,0.408,190.2,-2.601,31.57,0,0,868.2115,0,83.1,2.361,174,1.473,2.281,0.7093708,0,51.88,59.56,33.76,35.58
"2017-01-29 02:40:00",272813,0.37,183,-2.809,33.58,0,0,868.201,0,83.2,2.36,174,1.484,2.272,0.5766009,0,51.82,59.56,33.75,35.58
"2017-01-29 02:50:00",272814,0.419,189.6,-2.582,31.12,0,0,868.3527,0,83.2,2.36,173,1.487,2.268,0.8762816,0,51.88,59.56,33.76,35.58
"2017-01-29 03:00:00",272815,0.291,189.7,-2.694,30.88,0,0,868.4349,0,83.1,2.359,173,1.473,2.254,0.8611079,0,51.82,59.56,33.75,35.58
"2017-01-29 03:10:00",272816,0.167,189.6,-2.663,32.45,0,0,868.4623,0,83.1,2.362,186,1.468,2.248,0.7245445,0,51.88,59.56,33.76,35.58
"2017-01-29 03:20:00",272817,0.273,189.9,-2.629,31.15,0,0,868.319,0,82.8,2.363,173,1.461,2.251,1.08492,0,51.88,59.56,33.76,35.58
"2017-01-29 03:30:00",272818,0.292,188.9,-2.889,32.56,0,0,868.1946,0,83.7,2.354,173,1.464,2.246,0.9521502,0,51.82,59.56,33.75,35.58
"2017-01-29 03:40:00",272819,0.149,168.8,-2.34,30.67,0.02360588,0,868.4075,0,83,2.362,174,1.471,2.245,1.365634,0.739,51.88,59.56,33.76,35.58
"2017-01-29 03:50:00",272820,0.455,180,-2.978,37.61,0,0,868.1019,0,83.1,2.362,173,1.465,2.246,0.9559436,0,51.82,59.56,33.75,35.58
"2017-01-29 04:00:00",272821,0.3,182.4,-2.633,33.34,0,0,867.9521,0,83.4,2.356,178,1.467,2.259,1.009052,0,51.82,59.56,33.75,35.58
"2017-01-29 04:10:00",272822,0.117,167.8,-1.409,23.77,0.03934313,0,868.1884,0,83.1,2.353,182,1.463,2.271,1.957408,1.752,51.88,59.56,33.76,35.58
"2017-01-29 04:20:00",272823,0.013,153.4,-0.597,19.9,0.08655489,0,868.4097,0,82.7,2.355,173,1.465,2.281,2.420207,3.921,51.88,59.56,33.76,35.58
"2017-01-29 04:30:00",272824,0.107,155,-0.966,23.7,0,0,868.5488,0,83.1,2.353,174,1.468,2.279,1.479437,0,51.82,59.56,33.75,35.58
"2017-01-29 04:40:00",272825,0.056,341.4,-0.459,19.5,0,0,868.6922,0,82.7,2.354,174,1.471,2.279,1.77153,0,51.88,59.56,33.76,35.58
"2017-01-29 04:50:00",272826,0.18,158.1,-1.361,30.37,0,0,868.5236,0,82.7,2.363,173,1.474,2.281,0.6372957,0,51.88,59.56,33.76,35.58
"2017-01-29 05:00:00",272827,0.367,159.1,-2.561,37.88,0,0,868.1884,0,83,2.359,174,1.473,2.281,0.1972582,0,51.82,59.56,33.75,35.58
"2017-01-29 05:10:00",272828,0.316,171.6,-1.436,26.22,0,0,868.1884,0,82.4,2.361,174,1.495,2.281,1.623587,0,51.82,59.56,33.75,35.58
"2017-01-29 05:20:00",272829,0.372,168.5,-1.794,30.34,0,0,868.2242,0,82.8,2.358,172,1.49,2.281,0.648676,0,51.88,59.56,33.76,35.58
"2017-01-29 05:30:00",272830,0.322,160.6,-1.93,31.86,0,0,868.2432,0,82.7,2.364,173,1.495,2.279,0.5917746,0,51.82,59.56,33.75,35.58
"2017-01-29 05:40:00",272831,0.447,178.8,-2.176,31.44,0,0,868.3506,0,82.4,2.364,173,1.498,2.281,0.5728074,0,51.82,59.56,33.75,35.58
"2017-01-29 05:50:00",272832,0.299,152.6,-2.536,35.08,0,0,868.2473,0,82.6,2.365,173,1.497,2.279,0.2124319,0,51.88,59.56,33.76,35.58
"2017-01-29 06:00:00",272833,0.266,180.9,-1.636,23.42,0,0,868.3106,0,82.9,2.356,173,1.475,2.281,1.323906,0,51.88,59.56,33.76,35.58
"2017-01-29 06:10:00",272834,0.312,171.1,-1.878,27.49,0,0,868.4455,0,82.6,2.365,177,1.477,2.276,0.4552113,0,51.82,59.56,33.75,35.58
"2017-01-29 06:20:00",272835,0.405,173.3,-2.387,27.8,0,0,868.3527,0,82.9,2.359,174,1.474,2.265,0.5045258,0,51.88,59.56,33.76,35.58
"2017-01-29 06:30:00",272836,0.448,161.2,-1.782,23.61,0,0,868.3506,0,82.3,2.368,179,1.468,2.259,1.168375,0,51.82,59.56,33.75,35.58
"2017-01-29 06:40:00",272837,0.609,164.7,-2.535,27.94,0,0,868.1884,0,82.6,2.364,186,1.465,2.259,0.6676432,0,51.82,59.56,33.75,35.58
"2017-01-29 06:50:00",272838,0.369,160.8,-2.206,24.27,0,0,868.1925,0,82.4,2.365,173,1.46,2.262,1.369427,0,51.88,59.56,33.76,35.58
"2017-01-29 07:00:00",272839,0.558,158.9,-2.148,24.32,0.007868627,0,868.2031,0,82.3,2.368,173,1.46,2.251,2.617465,0.482,51.82,59.56,33.75,35.58
"2017-01-29 07:10:00",272840,0.546,141,-2.521,25.41,3.174991,0,868.0997,0,82.4,2.365,174,1.46,2.242,5.231135,2.39,51.82,59.56,33.75,35.58
"2017-01-29 07:20:00",272841,0.494,144.9,-1.843,20.49,8.037803,0,868.1314,0,82.4,2.362,174,1.46,2.247,8.6566,1.09,51.88,59.56,33.76,35.58
"2017-01-29 07:30:00",272842,0.453,146.1,-1.433,19.02,12.24358,0,868.2326,0,82.6,2.36,181,1.461,2.252,11.38787,0.933,51.88,59.56,33.76,35.58
"2017-01-29 07:40:00",272843,0.526,145.4,-1.168,17.67,17.61786,0,868.4139,0,81.4,2.371,174,1.463,2.246,14.74505,0.84,51.88,59.56,33.76,35.58
"2017-01-29 07:50:00",272844,0.44,148.5,-1.731,21.97,25.19534,0,868.4856,0,82.9,2.359,172,1.464,2.256,24.78625,0.962,51.88,59.56,33.76,35.58
"2017-01-29 08:00:00",272845,0.47,155.3,-1.873,26.46,33.42199,0,868.6816,0,82.3,2.366,173,1.464,2.278,37.42974,1.121,51.88,59.56,33.76,35.58
"2017-01-29 08:10:00",272846,0.233,160.7,-1.819,31.91,36.34912,0,868.6943,0,82.2,2.366,174,1.5,2.27,44.86107,1.233,51.88,59.56,33.76,35.58
"2017-01-29 08:20:00",272847,0.169,129.1,-1.193,30.76,53.99059,0,868.6943,0,82.2,2.362,173,1.53,2.239,51.68923,1.011,51.88,59.56,33.76,35.58
"2017-01-29 08:30:00",272848,0.097,135.2,-0.738,33.08,111.4237,0,868.6964,0,82.2,2.361,174,1.51,2.238,51.50715,0.523,51.88,59.56,33.76,35.58
"2017-01-29 08:40:00",272849,0.195,148.8,-0.722,33.76,53.04242,0,868.7196,0,82.6,2.354,178,1.517,2.24,51.81821,1.001,51.88,59.56,33.76,35.58
"2017-01-29 08:50:00",272850,0.178,136.4,0.94,20.47,48.67533,0,868.9366,0,82.7,2.348,173,1.533,2.257,55.95684,1.15,51.88,59.56,33.76,35.58
"2017-01-29 09:00:00",272851,0.764,132.1,1.118,21.32,67.54365,0,868.9249,0,82.3,2.351,174,1.544,2.239,59.55243,0.943,51.88,59.56,33.76,35.58
"2017-01-29 09:10:00",272852,0.924,135.2,1.592,17.57,69.70617,0,868.8831,0,82.3,2.349,173,1.491,2.228,59.33171,0.87,51.88,59.56,33.76,35.58
"2017-01-29 09:20:00",272853,1.141,137.5,1.917,21.2,57.30689,0,868.8619,0,82.1,2.35,173,1.414,2.254,61.81593,1.079,51.88,59.56,33.76,35.58
"2017-01-29 09:30:00",272854,1.228,140.4,2.055,24.91,57.09774,0,868.6712,0,82.1,2.349,173,1.388,2.247,63.68819,1.115,51.88,59.56,33.76,35.58
"2017-01-29 09:40:00",272855,0.491,134.7,2.194,26.32,58.42916,0,868.6151,0,82.2,2.349,168,1.415,2.185,64.16771,1.098,51.88,59.56,33.76,35.58
"2017-01-29 09:50:00",272856,0.55,345.8,2.291,24.33,59.77753,0,868.6801,0,82.3,2.347,174,1.457,2.155,65.99102,1.104,51.82,59.56,33.75,35.58
"2017-01-29 10:00:00",272857,0.426,90.8,2.588,25.49,61.0398,0,868.8466,0,82,2.348,173,1.425,2.201,71.33012,1.168,51.88,59.56,33.76,35.58
"2017-01-29 10:10:00",272858,0.69,125.6,2.677,27.52,66.07394,0,868.8108,0,82.1,2.347,172,1.444,2.235,78.84605,1.196,51.88,59.56,33.76,35.58
"2017-01-29 10:20:00",272859,1.138,136.3,2.921,23.71,79.52077,0,868.6042,0,82,2.347,173,1.457,2.237,88.35672,1.13,51.88,59.56,33.76,35.58
"2017-01-29 10:30:00",272860,0.95,137.4,3.294,22.44,82.25025,0,868.6317,0,82,2.345,172,1.461,2.237,98.15939,1.206,51.88,59.56,33.76,35.58
"2017-01-29 10:40:00",272861,1.082,136.2,3.458,20.72,82.75368,0,868.3893,0,82.2,2.343,177,1.459,2.236,109.9908,1.341,51.88,59.56,33.76,35.58
"2017-01-29 10:50:00",272862,1.036,142.7,3.79,18.76,133.725,0,868.1721,0,82,2.343,177,1.459,2.237,121.1625,0.913,51.88,59.56,33.76,35.58
"2017-01-29 11:00:00",272863,1.034,135.4,4.069,18.06,262.2191,0,868.0836,0,81.6,2.346,173,1.459,2.274,142.3605,0.583,51.88,59.56,33.76,35.58
"2017-01-29 11:10:00",272864,0.962,137.3,4.276,15.42,264.0611,0,868.0004,0,81.7,2.345,172,1.457,2.277,171.3459,0.648,51.88,59.56,33.76,35.58
"2017-01-29 11:20:00",272865,0.937,141.2,4.206,14.81,251.9353,0,867.9125,0,81.8,2.345,172,1.431,2.217,156.4886,0.621,51.88,59.56,33.76,35.58
"2017-01-29 11:30:00",272866,1.146,138.2,4.138,13.32,247.0106,0,867.7578,0,81.7,2.345,172,1.397,2.175,154.9514,0.628,51.88,59.56,33.76,35.58
"2017-01-29 11:40:00",272867,0.522,129.3,4.14,15.19,200.3316,0,867.7529,0,81.6,2.346,173,1.376,2.158,127.9189,0.639,51.82,59.56,33.75,35.58
"2017-01-29 11:50:00",272868,0.683,141.1,4.11,14.17,153.7048,0,867.6611,0,81.5,2.348,173,1.353,2.151,99.47271,0.647,51.88,59.56,33.76,35.58
"2017-01-29 12:00:00",272869,0.957,131.9,3.888,15.71,165.9821,0,867.3848,0,81.6,2.347,173,1.354,2.149,106.7124,0.643,51.88,59.56,33.76,35.58
"2017-01-29 12:10:00",272870,0.56,163.7,4.136,14.93,195.8031,0,867.3805,0,81.5,2.347,173,1.352,2.149,128.301,0.656,51.82,59.56,33.75,35.58
"2017-01-29 12:20:00",272871,0.484,20.36,4.732,16.02,320.6834,0,867.4922,0,81.5,2.345,173,1.375,2.148,220.7709,0.685,51.88,59.56,33.76,35.58
"2017-01-29 12:30:00",272872,0.489,119.1,4.425,17.19,155.9009,0,867.2562,0,81.2,2.35,172,1.447,2.148,102.0191,0.658,51.88,59.56,33.76,35.58
"2017-01-29 12:40:00",272873,0.764,139.1,3.839,21.25,146.0679,0,866.9795,0,81.5,2.349,174,1.456,2.148,95.60495,0.656,51.82,59.56,33.75,35.58
"2017-01-29 12:50:00",272874,0.786,140.6,3.823,16.93,148.8043,0,866.7499,0,81.4,2.349,173,1.443,2.148,97.9856,0.659,51.88,59.56,33.76,35.58
"2017-01-29 13:00:00",272875,0.982,138.4,3.817,17.62,180.4107,0,866.3176,0,81.4,2.35,169,1.435,2.148,116.0944,0.643,51.82,59.56,33.75,35.58
"2017-01-29 13:10:00",272876,0.744,158.5,3.71,18.85,161.3619,0,866.0066,0,81.4,2.349,169,1.408,2.148,104.4755,0.648,51.88,59.56,33.76,35.58
"2017-01-29 13:20:00",272877,0.754,163,4.206,15.02,231.4173,0,865.9137,0,81.2,2.349,169,1.405,2.146,147.9398,0.64,51.88,59.56,33.76,35.58
"2017-01-29 13:30:00",272878,0.669,134.8,4.237,14.56,161.9776,0,865.7184,0,81.3,2.35,170,1.429,2.139,104.5819,0.648,51.88,59.56,33.76,35.58
"2017-01-29 13:40:00",272879,0.658,146.3,4.035,17.18,132.0956,0,865.5514,0,81.2,2.352,170,1.411,2.142,86.50101,0.655,51.82,59.56,33.75,35.58
"2017-01-29 13:50:00",272880,0.789,160.4,3.846,16.45,64.16609,0,865.3906,0,81.2,2.352,169,1.345,2.14,43.60842,0.686,51.88,59.56,33.76,35.58
"2017-01-29 14:00:00",272881,0.726,161.2,3.674,16.27,45.57788,0,865.3866,0,81.2,2.353,169,1.339,2.141,31.98605,0.703,51.88,59.56,33.76,35.58
"2017-01-29 14:10:00",272882,0.504,151,3.489,16.14,26.52527,0,865.4566,0,81,2.356,170,1.356,2.15,19.75678,0.746,51.88,59.56,33.76,35.58
"2017-01-29 14:20:00",272883,0.254,15.75,3.096,19.42,33.23679,0,865.65,0,81.1,2.356,169,1.361,2.173,23.44169,0.706,51.88,59.56,33.76,35.58
"2017-01-29 14:30:00",272884,0.361,132.8,2.93,22.86,37.33419,0,865.704,0,81.3,2.355,169,1.366,2.197,26.0692,0.698,51.88,59.56,33.76,35.58
"2017-01-29 14:40:00",272885,0.301,143.4,2.724,25.51,34.79079,0,865.7308,0,81.3,2.356,170,1.369,2.215,23.95796,0.688,51.82,59.56,33.75,35.58
"2017-01-29 14:50:00",272886,0.17,40.88,2.87,19.99,24.67879,0,865.7414,0,80.9,2.358,170,1.37,2.223,17.46057,0.709,51.88,59.56,33.76,35.58
"2017-01-29 15:00:00",272887,0.139,140,2.644,25.41,15.76582,0,865.7189,0,81.1,2.359,169,1.379,2.232,11.93355,0.757,51.82,59.56,33.75,35.58
"2017-01-29 15:10:00",272888,0.176,74.05,2.148,30.08,21.93848,0,865.6124,0,81.1,2.36,173,1.4,2.233,15.62583,0.713,51.88,59.56,33.76,35.58
"2017-01-29 15:20:00",272889,0.664,88.6,2.217,28.08,15.57711,0,865.5931,0,81.1,2.36,169,1.414,2.226,11.36872,0.73,51.82,59.56,33.75,35.58
"2017-01-29 15:30:00",272890,0.873,127.4,2.209,27.79,13.80001,0,865.5641,0,81.2,2.358,174,1.434,2.18,10.1367,0.736,51.82,59.56,33.75,35.58
"2017-01-29 15:40:00",272891,1.169,132.8,2.438,24.14,16.65044,0,865.6147,0,81,2.359,169,1.444,2.156,11.89944,0.715,51.88,59.56,33.76,35.58
"2017-01-29 15:50:00",272892,0.972,116.3,2.467,22.81,13.71745,0,865.6547,0,81.1,2.359,169,1.445,2.159,9.894083,0.722,51.88,59.56,33.76,35.58
"2017-01-29 16:00:00",272893,0.792,75.49,2.276,24.23,12.3571,0,865.6464,0,80.9,2.362,169,1.454,2.15,8.991864,0.73,51.88,59.56,33.76,35.58
"2017-01-29 16:10:00",272894,0.862,109.9,2.222,27.38,9.113511,0,865.6105,0,80.9,2.362,170,1.455,2.144,6.808342,0.756,51.88,59.56,33.76,35.58
"2017-01-29 16:20:00",272895,0.585,359.3,2.003,32.08,5.99573,0,865.4841,0,80.8,2.363,170,1.455,2.129,4.723382,0.795,51.88,59.56,33.76,35.58
"2017-01-29 16:30:00",272896,0.256,0.9,1.823,33.14,3.007694,0,865.4756,0,80.8,2.364,170,1.454,2.103,2.782474,0.936,51.88,59.56,33.76,35.58
"2017-01-29 16:40:00",272897,0.402,118.3,1.821,31.16,2.936925,0,865.4756,0,80.7,2.364,169,1.442,2.1,2.896199,0.991,51.88,59.56,33.76,35.58
"2017-01-29 16:50:00",272898,0.88,146.9,1.556,38.7,1.010428,0,865.4883,0,80.7,2.368,191,1.424,2.092,1.63385,1.162,51.82,59.56,33.75,35.58
"2017-01-29 17:00:00",272899,1.149,138.3,0.622,56.54,0,0,865.6863,0,80.8,2.372,192,1.375,2.099,1.080388,0,51.88,59.56,33.76,35.58
"2017-01-29 17:10:00",272900,0.847,81.4,-0.255,70.61,0,0,865.758,0,80.6,2.377,170,1.369,2.132,0.3032669,0,51.88,59.56,33.76,35.58
"2017-01-29 17:20:00",272901,0.616,120.4,-0.814,77.23,0,0,865.8359,0,81.1,2.374,193,1.369,2.147,0.1250976,0,51.82,59.56,33.75,35.58
"2017-01-29 17:30:00",272902,0.718,133.7,-1.292,85.1,0,0,865.5663,0,81.1,2.376,174,1.36,2.148,0,0,51.88,59.56,33.76,35.58
"2017-01-29 17:40:00",272903,0.762,110.1,-1.627,89.2,0,0,865.3219,0,80.8,2.379,181,1.346,2.15,0,0,51.88,59.56,33.76,35.58
"2017-01-29 17:50:00",272904,0.806,115,-1.643,89.5,0,0,865.0164,0,81.3,2.374,184,1.332,2.157,0,0,51.82,59.56,33.75,35.58
"2017-01-29 18:00:00",272905,0.977,122.9,-1.631,90.5,0,0,864.5793,0,81.5,2.373,184,1.341,2.172,0,0,51.82,59.56,33.75,35.58
"2017-01-29 18:10:00",272906,0.947,117,-1.506,89.5,0,0,864.1891,0,81.6,2.37,177,1.373,2.188,0.2388621,0,51.88,59.56,33.76,35.58
"2017-01-29 18:20:00",272907,0.354,247.2,-1.209,89.1,0,0,864.3592,0,78.91,2.397,214,1.407,2.202,0.3488272,0,51.88,59.56,33.76,35.58
"2017-01-29 18:30:00",272908,0.255,27.83,-1.589,95.5,0,0,864.515,0,81.2,2.375,178,1.427,2.215,0,0,51.88,59.56,33.76,35.58
"2017-01-29 18:40:00",272909,0.064,18.06,-1.664,99.6,0,0,864.5358,0.5,80.8,2.379,199,1.447,2.22,0,0,51.88,59.56,33.76,35.58
"2017-01-29 18:50:00",272910,0.163,98,-1.741,100,0,0,864.4676,0,81.3,2.375,193,1.451,2.225,0,0,51.88,59.56,33.76,35.58
"2017-01-29 19:00:00",272911,0.29,160.3,-1.697,100,0,0,864.301,0.5,80.5,2.382,214,1.455,2.218,0.003792113,0,51.82,59.56,33.75,35.58
"2017-01-29 19:10:00",272912,0.207,326,-1.562,100,0.05506139,0,864.3147,0
"2017-01-29 19:10:00",272912,0.207,326,-1.562,100,0.05506139,0,864.3147,0,81.6,2.371,202,1.457,2.188,0.1554769,0.225,51.82,59.56,33.75,35.58
"2017-01-29 19:20:00",272913,0.24,310.6,-1.657,100,0,0,864.4435,0.5,82.3,2.364,187,1.457,2.18,0,0,51.88,59.56,33.76,35.58
"2017-01-29 19:30:00",272914,0.131,96.2,-1.696,100,0,0,864.452,0,82.3,2.364,278,1.457,2.176,0,0,51.82,59.56,33.75,35.58
"2017-01-29 19:40:00",272915,0.257,123,-1.797,100,0.03539672,0,864.2981,0,81.1,2.377,220,1.457,2.18,0,0,51.88,59.56,33.76,35.58
"2017-01-29 19:50:00",272916,0.58,125.7,-1.714,100,0,0,864.1148,0,82,2.366,221,1.457,2.161,0.1099718,0,51.82,59.56,33.75,35.58
"2017-01-29 20:00:00",272917,0.682,125.3,-0.964,100,0,0,863.8892,0,82.8,2.354,201,1.457,2.157,0.5612352,0,51.82,59.56,33.75,35.58
"2017-01-29 20:10:00",272918,0.802,145.6,-0.204,100,0,0,863.7416,0.5,82.6,2.354,233,1.457,2.167,0.7205048,0,51.88,59.56,33.76,35.58
"2017-01-29 20:20:00",272919,0.54,161.3,0.276,100,0,0,863.6616,0,80.6,2.373,250,1.456,2.174,0.7963474,0,51.88,59.56,33.76,35.58
"2017-01-29 20:30:00",272920,0.456,145.6,0.431,99.5,0,0,863.4635,0,318,0,0,1.449,2.208,0.5460667,0,51.88,59.56,33.76,35.58
"2017-01-29 20:40:00",272921,0.458,132,0.52,99.9,0,0,863.2906,0,82.6,2.352,202,1.433,2.21,0.379213,0,51.82,59.56,33.75,35.58
"2017-01-29 20:50:00",272922,0.537,124.7,0.581,100,0,0,863.1557,0,84.1,2.336,201,1.424,2.233,0.2389042,0,51.88,59.56,33.76,35.58
"2017-01-29 21:00:00",272923,0.351,113,0.633,100,0,0,863.0525,0,84.1,2.336,196,1.417,2.236,0.3716288,0,51.88,59.56,33.76,35.58
"2017-01-29 21:10:00",272924,0.055,63.34,0.701,100,0,0,863.004,0.5,84.3,2.334,194,1.391,2.236,0.3223311,0,51.82,59.56,33.75,35.58
"2017-01-29 21:20:00",272925,0.14,128.9,0.75,100,0,0,862.711,0,84.2,2.335,191,1.394,2.236,0.3867973,0,51.82,59.56,33.75,35.58
"2017-01-29 21:30:00",272926,0.406,145.1,0.793,100,0,0,862.6393,0,84.6,2.33,196,1.381,2.236,0.4626399,0,51.88,59.56,33.76,35.58
"2017-01-29 21:40:00",272927,0.749,155.1,1.209,100,0,0,862.77,0,84.8,2.326,187,1.377,2.236,0.9063192,0,51.82,59.56,33.75,35.58
"2017-01-29 21:50:00",272928,0.675,146.2,1.509,100,0,0,862.7848,0,84.4,2.329,194,1.377,2.236,0.9442405,0,51.88,59.56,33.76,35.58
"2017-01-29 22:00:00",272929,0.706,129.2,1.52,100,0,0,862.7468,0,84,2.334,169,1.374,2.236,0.758426,0,51.88,59.56,33.76,35.58
"2017-01-29 22:10:00",272930,0.733,138.4,1.541,100,0,0,862.555,0,84.2,2.332,170,1.374,2.236,0.7356732,0,51.88,59.56,33.76,35.58
"2017-01-29 22:20:00",272931,0.982,140.6,1.641,100,0,0,862.5297,0,83.9,2.333,174,1.385,2.236,0.701544,0,51.88,59.56,33.76,35.58
"2017-01-29 22:30:00",272932,1.034,135.9,1.923,100,0,0,862.4327,0,83.3,2.339,192,1.407,2.235,0.7811785,0,51.88,59.56,33.76,35.58
"2017-01-29 22:40:00",272933,1.1,120.6,1.896,100,0,0,862.2887,0.5,83.2,2.339,170,1.411,2.232,0.6332778,0,51.82,59.56,33.75,35.58
"2017-01-29 22:50:00",272934,0.939,118.1,2.008,100,0.1887812,0,862.261,0,83,2.341,174,1.416,2.233,0.7394593,1.045,51.88,59.56,33.76,35.58
"2017-01-29 23:00:00",272935,1.141,107.8,2.069,100,0.1337204,0,862.1653,0,83.1,2.341,174,1.432,2.234,0.674997,1.087,51.82,59.56,33.75,35.58
"2017-01-29 23:10:00",272936,0.966,127.6,2.112,100,0.04326169,0,861.9997,0,82.7,2.344,190,1.439,2.231,0.7432471,0.402,51.82,59.56,33.75,35.58
"2017-01-29 23:20:00",272937,1.094,121.4,2.223,100,0.07472464,0,861.9319,0.5,82.1,2.349,200,1.43,2.219,0.769784,1.077,51.82,59.56,33.75,35.58
"2017-01-29 23:30:00",272938,0.7,107.7,2.261,100,0.01179841,0,861.6248,0,81.9,2.351,183,1.441,2.212,0.8342418,0.241,51.82,59.56,33.75,35.58
"2017-01-29 23:40:00",272939,0.612,134.7,2.395,100,0.02359623,0,861.3917,0,81.7,2.353,182,1.438,2.182,1.016222,0.562,51.82,59.56,33.75,35.58
"2017-01-29 23:50:00",272940,0.874,134,2.488,100,0.09437983,0,861.0959,0,81.8,2.35,182,1.427,2.161,1.175429,2.338,51.82,59.56,33.75,35.58
